Wind_Speed
17 19 19 18 18 17 16 15 13 13 12 12 12 12 12 13 14 14 15 16 16 16 16 15 14 14 13 13 12 12 11 10 10 9 9 9 9 9 7 6 4 4 3
16 17 17 16 16 15 14 12 11 10 10 9 9 9 10 11 12 13 14 14 15 15 15 15 14 13 12 12 12 12 11 11 10 10 10 10 10 9 8 6 4 3 2
14 15 14 14 13 12 11 9 8 7 7 7 7 7 8 9 10 11 12 13 13 14 14 14 13 13 12 11 11 11 11 10 10 9 9 10 10 9 9 7 5 3 2
13 13 13 12 10 9 8 7 6 5 5 5 6 6 6 6 7 9 10 11 12 12 13 13 12 12 12 11 11 10 10 9 9 8 8 8 8 9 8 7 5 3 2
12 11 11 10 9 8 7 6 5 4 3 4 4 5 5 5 6 7 9 10 11 11 12 12 12 11 12 11 11 10 10 9 9 8 8 7 7 7 7 7 6 4 3
10 9 8 7 6 5 4 3 2 2 2 3 4 5 5 5 6 7 8 9 10 11 12 12 12 12 11 11 11 10 10 9 8 8 8 8 7 6 6 6 6 5 4
7 7 6 5 4 2 1 0 1 2 3 4 5 5 6 6 7 8 9 10 11 12 12 13 13 13 12 12 11 11 10 10 9 8 8 9 8 7 7 6 6 5 4
4 4 4 3 2 2 2 2 3 4 5 6 7 8 8 8 9 10 10 11 11 12 13 14 14 14 14 13 12 11 11 11 10 9 9 9 9 8 7 7 7 6 5
5 5 4 4 4 4 4 5 5 6 7 8 9 9 10 10 11 11 11 12 12 13 14 15 15 15 15 15 14 13 12 11 11 10 10 10 10 9 8 8 8 8 7
8 8 7 6 6 6 6 6 7 8 9 10 11 10 11 11 12 12 12 12 13 13 14 15 15 15 16 16 16 15 14 12 12 11 11 11 10 10 10 9 9 9 10
11 10 9 8 8 8 7 8 9 10 11 11 11 11 11 11 11 12 12 12 13 14 15 15 15 15 16 17 17 17 16 14 13 13 12 12 11 11 11 11 11 11 11
13 12 12 11 11 11 11 11 12 12 12 11 10 10 10 10 11 11 12 13 14 15 15 16 16 16 17 18 18 18 17 16 15 15 14 14 13 13 13 13 13 12 11
14 14 14 14 14 14 15 15 14 13 12 11 10 10 10 10 11 12 13 14 15 16 16 17 17 17 18 18 19 19 19 19 17 16 16 16 15 15 15 14 13 12 11
16 17 17 18 18 17 17 17 16 15 14 13 11 11 11 11 12 13 14 15 16 18 18 18 18 18 18 19 20 21 22 22 20 19 18 17 17 17 17 17 15 13 12
17 19 19 20 20 19 19 18 18 18 17 16 15 15 14 14 13 14 15 16 19 21 22 23 22 20 19 20 21 22 23 24 23 21 20 19 19 18 18 18 16 13 12
20 21 21 21 21 20 20 20 19 18 18 18 18 18 18 17 17 16 17 19 21 22 24 24 24 22 20 21 22 23 24 24 24 23 22 21 21 20 19 18 16 14 13
24 24 24 24 24 23 23 23 23 22 21 21 21 21 21 22 21 21 21 22 23 24 25 25 25 23 23 23 23 24 25 25 25 24 24 23 22 22 20 18 16 15 14
29 28 28 28 28 27 27 27 27 26 26 25 25 25 26 26 26 25 25 26 27 27 27 28 28 26 27 25 24 24 25 26 26 26 26 25 24 23 22 19 18 17 16
33 32 31 31 31 31 30 30 30 30 30 29 29 29 29 30 29 29 30 30 31 31 31 31 31 30 29 28 25 24 24 26 27 27 27 27 26 25 23 21 19 19 18
37 35 34 34 34 34 33 33 33 32 32 32 32 32 32 32 32 33 33 34 34 34 34 34 34 33 32 31 28 26 25 26 27 27 27 28 28 27 25 23 22 21 21
39 37 37 37 37 37 36 35 35 35 36 36 36 36 36 35 35 35 35 36 36 37 37 38 37 36 36 34 31 28 27 26 26 27 28 28 28 28 27 25 24 23 22
35 36 37 38 39 38 38 38 38 38 38 39 40 40 38 37 36 35 35 36 38 39 40 41 41 40 39 37 34 31 28 27 27 27 27 27 28 28 27 26 26 25 24
40 39 39 40 41 40 40 40 40 40 40 41 41 40 39 38 37 37 37 38 40 41 42 42 43 42 41 39 37 34 30 28 28 28 27 27 27 27 27 27 27 26 26
41 41 40 41 42 41 41 41 40 40 40 40 40 40 39 39 39 39 40 41 42 42 43 43 44 44 42 40 38 36 33 31 30 29 29 29 29 28 29 28 28 28 28
41 41 40 40 41 40 40 41 40 40 39 38 38 38 38 39 39 41 42 42 42 43 43 44 44 44 42 40 39 36 34 32 31 30 30 31 30 30 30 30 30 30 29
42 40 38 38 38 38 38 38 38 38 37 37 37 37 38 39 41 42 44 44 43 43 43 42 42 42 41 39 38 36 35 33 32 31 30 31 32 32 32 32 31 31 31
Wind_Direction
96 95 95 95 94 92 90 87 82 76 70 64 58 53 50 47 44 40 40 40 40 41 44 45 46 45 44 44 44 45 45 46 46 46 44 43 44 46 47 52 57 64 70
97 96 96 96 94 92 88 83 77 70 63 57 51 48 46 44 40 36 33 33 32 33 35 39 41 42 42 42 43 44 46 47 46 45 44 42 43 49 51 52 52 47 32
99 98 98 97 95 91 88 82 71 58 47 41 36 38 40 40 37 32 28 25 25 25 25 28 33 36 38 38 38 40 43 45 45 45 44 43 41 43 47 47 50 52 38
105 104 102 100 97 94 90 85 74 57 38 28 22 24 29 30 28 24 20 16 15 15 16 17 20 25 28 30 31 31 33 35 33 34 38 42 39 37 39 38 44 53 48
117 114 111 108 106 103 99 92 81 63 40 23 14 12 11 10 10 9 8 5 2 2 3 4 5 9 14 18 20 20 22 27 25 19 17 28 36 34 34 32 33 49 54
131 130 128 126 122 117 112 103 84 54 22 6 359 1 357 350 348 347 349 351 350 349 349 351 352 353 357 1 5 8 8 12 16 11 3 2 16 20 20 20 20 30 40
147 147 149 150 147 143 130 71 353 337 331 329 331 338 342 340 336 334 333 334 335 336 337 338 342 343 345 347 350 353 354 356 359 359 352 347 356 359 355 354 358 7 14
184 183 184 194 212 249 290 311 318 321 323 325 326 329 334 336 336 335 331 326 324 325 327 328 331 335 337 339 339 341 343 344 344 345 340 336 342 343 337 333 334 340 342
229 233 235 248 264 278 294 305 314 321 326 329 330 332 337 341 343 342 337 332 328 324 322 323 323 325 329 332 334 334 335 335 334 336 332 328 331 331 326 320 317 315 312
253 252 256 262 272 278 288 300 309 317 323 327 327 332 338 344 351 356 353 348 341 334 327 322 320 319 322 325 327 326 325 324 322 324 322 320 323 321 319 319 316 309 301
259 260 264 267 271 276 284 297 303 309 315 320 323 328 337 345 355 1 2 357 352 344 334 325 318 314 315 317 318 318 317 314 312 311 309 308 310 311 314 320 321 315 306
257 262 268 268 269 272 278 289 298 305 308 312 316 322 331 340 349 354 355 356 353 348 339 328 318 311 309 308 309 311 311 307 303 301 300 300 301 303 309 315 316 316 313
258 260 265 267 269 273 280 287 293 300 305 304 305 309 315 326 334 339 347 349 346 345 340 331 318 308 304 302 302 303 303 301 299 296 294 294 296 299 303 306 307 308 310
263 263 264 267 270 273 278 285 289 291 293 297 298 300 302 311 320 327 334 335 335 337 334 330 323 308 298 295 294 295 298 297 298 295 292 292 294 296 298 298 298 299 301
260 264 265 266 269 273 278 283 287 290 294 298 299 298 299 302 308 314 320 325 330 333 333 328 325 314 299 290 289 288 292 293 295 294 291 289 288 289 291 292 292 292 296
257 259 262 264 266 269 273 277 282 289 295 296 297 298 299 299 300 303 306 314 321 326 329 331 330 322 311 297 291 286 285 287 289 288 285 283 283 284 286 287 288 289 292
259 261 263 265 267 269 272 276 280 285 289 293 296 298 297 298 300 303 307 313 318 321 324 326 328 327 322 309 295 287 281 280 283 281 279 279 281 282 282 282 284 286 290
261 262 264 267 270 272 276 280 283 286 290 293 296 298 299 301 303 306 309 311 314 317 318 320 322 319 320 316 305 290 281 279 279 277 275 275 277 278 278 277 278 281 285
260 262 265 268 272 275 278 281 285 288 291 294 296 297 299 300 302 305 307 308 310 312 314 314 316 316 316 315 309 299 285 279 277 276 274 273 272 272 272 272 273 277 280
262 261 264 267 271 275 278 281 284 287 290 292 293 294 296 297 299 300 302 303 305 307 309 309 311 311 311 312 308 302 293 282 276 275 274 273 270 267 267 267 268 271 275
262 260 261 265 269 272 275 279 282 284 286 288 290 292 294 295 296 297 298 299 300 302 303 304 305 306 306 305 304 300 294 287 278 275 273 272 268 264 263 264 266 269 273
268 264 262 262 264 267 270 275 279 282 284 286 288 290 291 293 293 293 293 294 296 297 299 300 301 301 300 300 298 295 289 285 280 276 273 269 266 262 259 259 263 267 270
272 270 268 267 267 268 268 271 275 278 281 282 284 286 288 289 290 290 292 293 294 295 296 296 297 296 296 295 294 290 285 279 275 275 272 269 265 261 258 257 260 264 267
272 271 269 268 268 269 268 270 273 276 278 280 281 283 285 287 289 290 291 292 293 293 293 293 293 293 292 291 289 286 282 277 270 268 268 268 264 259 256 256 258 260 265
272 272 270 269 268 268 270 272 275 276 277 279 280 282 284 286 289 291 292 293 293 292 291 291 290 289 288 287 284 282 277 273 269 265 263 264 263 259 254 254 256 259 263
270 271 271 272 271 271 272 274 276 277 278 279 280 282 284 286 289 290 292 292 292 291 290 289 288 286 285 283 280 277 275 271 269 266 264 263 261 258 255 253 256 257 260
Height
5924 5924 5924 5925 5925 5925 5926 5926 5927 5927 5927 5927 5926 5926 5924 5923 5922 5920 5919 5918 5916 5915 5914 5913 5912 5910 5909 5908 5907 5906 5905 5904 5903 5901 5900 5900 5899 5898 5897 5897 5896 5896 5895
5927 5927 5927 5928 5928 5928 5928 5929 5929 5930 5929 5929 5928 5927 5926 5925 5924 5923 5921 5920 5918 5917 5916 5915 5913 5912 5911 5909 5908 5907 5906 5905 5903 5902 5901 5900 5899 5898 5897 5897 5896 5896 5895
5929 5929 5929 5930 5930 5930 5930 5931 5931 5931 5931 5931 5930 5929 5928 5927 5926 5925 5924 5922 5920 5919 5917 5916 5915 5913 5912 5910 5909 5908 5907 5905 5904 5903 5902 5900 5899 5898 5897 5897 5896 5896 5895
5930 5930 5931 5931 5932 5932 5932 5932 5932 5932 5932 5932 5931 5930 5929 5928 5927 5926 5925 5924 5922 5920 5919 5917 5916 5914 5913 5911 5910 5908 5907 5906 5905 5903 5902 5901 5900 5899 5897 5897 5896 5895 5895
5932 5932 5932 5932 5933 5933 5933 5933 5933 5933 5933 5933 5932 5931 5930 5929 5928 5927 5926 5925 5923 5921 5920 5918 5916 5915 5914 5912 5911 5909 5908 5906 5905 5903 5902 5901 5900 5898 5897 5896 5896 5895 5894
5933 5933 5933 5933 5933 5933 5933 5934 5934 5933 5933 5933 5932 5931 5931 5930 5929 5928 5927 5925 5924 5922 5920 5919 5917 5915 5914 5913 5911 5910 5908 5907 5905 5904 5902 5900 5899 5898 5897 5896 5895 5894 5893
5933 5933 5933 5934 5934 5934 5934 5934 5934 5934 5933 5933 5932 5931 5931 5930 5929 5928 5927 5926 5924 5923 5921 5919 5917 5915 5914 5913 5911 5910 5908 5907 5905 5904 5902 5900 5899 5897 5896 5895 5894 5893 5892
5934 5933 5934 5934 5934 5934 5934 5934 5934 5933 5933 5932 5932 5931 5930 5930 5929 5928 5926 5925 5924 5922 5921 5919 5917 5915 5913 5912 5911 5909 5908 5907 5905 5904 5902 5900 5898 5897 5895 5894 5893 5892 5891
5934 5934 5934 5934 5934 5934 5933 5933 5933 5933 5932 5932 5931 5930 5929 5929 5928 5927 5926 5924 5923 5922 5920 5918 5917 5915 5913 5911 5910 5909 5907 5906 5904 5903 5901 5899 5898 5896 5894 5893 5891 5890 5889
5933 5933 5933 5933 5933 5933 5932 5932 5932 5932 5931 5931 5930 5929 5928 5928 5927 5926 5925 5923 5922 5921 5919 5917 5916 5914 5912 5911 5909 5907 5906 5905 5903 5902 5900 5898 5896 5894 5893 5891 5889 5887 5886
5932 5932 5932 5932 5932 5932 5931 5931 5931 5930 5930 5929 5928 5928 5927 5926 5925 5924 5923 5922 5921 5919 5918 5916 5914 5913 5911 5909 5908 5906 5905 5903 5901 5900 5898 5896 5895 5893 5891 5889 5887 5885 5884
5931 5931 5931 5931 5930 5930 5930 5929 5929 5928 5928 5927 5926 5926 5925 5923 5923 5922 5921 5919 5918 5917 5915 5914 5912 5910 5909 5907 5905 5904 5903 5901 5899 5897 5896 5894 5893 5891 5889 5887 5885 5883 5882
5929 5929 5929 5928 5928 5928 5928 5927 5926 5926 5925 5925 5924 5923 5922 5921 5920 5919 5917 5916 5915 5914 5912 5911 5909 5907 5905 5904 5902 5901 5900 5898 5897 5895 5893 5892 5890 5888 5887 5885 5884 5882 5880
5925 5925 5926 5925 5925 5925 5925 5924 5924 5923 5922 5922 5922 5921 5920 5919 5917 5916 5915 5914 5912 5911 5909 5907 5905 5903 5901 5900 5899 5897 5896 5895 5893 5892 5890 5888 5887 5885 5884 5883 5881 5880 5878
5923 5922 5922 5922 5922 5921 5921 5920 5920 5919 5918 5918 5918 5917 5917 5916 5915 5914 5912 5911 5909 5907 5905 5903 5900 5898 5897 5895 5894 5893 5892 5891 5889 5888 5886 5885 5884 5882 5881 5879 5878 5877 5875
5920 5919 5918 5919 5918 5918 5918 5917 5917 5916 5915 5914 5914 5913 5912 5912 5912 5911 5910 5908 5906 5903 5901 5899 5896 5894 5892 5891 5889 5888 5887 5886 5885 5884 5882 5881 5880 5878 5877 5875 5874 5873 5872
5914 5914 5913 5913 5914 5914 5913 5913 5912 5912 5911 5911 5909 5908 5908 5907 5907 5906 5904 5903 5901 5899 5897 5895 5892 5890 5888 5886 5884 5883 5881 5880 5880 5879 5878 5877 5875 5874 5873 5871 5870 5869 5868
5908 5908 5908 5907 5907 5907 5907 5906 5906 5905 5905 5904 5903 5902 5901 5901 5900 5899 5898 5897 5895 5894 5892 5890 5888 5885 5883 5881 5878 5877 5875 5875 5874 5873 5872 5871 5870 5869 5868 5867 5866 5865 5864
5900 5901 5901 5901 5900 5900 5900 5899 5899 5898 5898 5898 5897 5896 5895 5894 5893 5892 5892 5890 5889 5887 5886 5884 5882 5880 5878 5875 5873 5871 5870 5868 5867 5867 5866 5865 5865 5864 5863 5862 5861 5860 5859
5892 5893 5893 5893 5893 5893 5893 5892 5892 5892 5891 5891 5890 5890 5889 5888 5887 5886 5885 5884 5882 5881 5879 5878 5876 5874 5872 5870 5868 5866 5864 5862 5861 5860 5859 5859 5858 5858 5857 5856 5856 5855 5854
5884 5884 5885 5885 5884 5885 5885 5885 5885 5885 5884 5884 5883 5882 5882 5881 5880 5879 5878 5877 5875 5874 5872 5871 5869 5867 5865 5863 5862 5860 5858 5855 5854 5853 5853 5852 5852 5851 5851 5850 5850 5849 5848
5873 5874 5874 5874 5875 5876 5876 5877 5877 5877 5877 5876 5875 5874 5873 5873 5872 5871 5870 5869 5868 5866 5865 5863 5861 5859 5857 5856 5854 5853 5851 5849 5847 5846 5845 5845 5844 5844 5844 5844 5843 5843 5842
5866 5866 5866 5865 5865 5866 5867 5868 5868 5868 5868 5868 5867 5866 5865 5864 5864 5863 5862 5861 5859 5858 5856 5854 5852 5850 5849 5847 5845 5844 5843 5842 5840 5839 5838 5837 5837 5837 5836 5836 5836 5836 5836
5856 5856 5856 5855 5856 5856 5857 5858 5859 5860 5860 5859 5859 5858 5857 5856 5855 5854 5853 5852 5851 5849 5847 5845 5842 5840 5839 5837 5835 5834 5833 5832 5832 5832 5830 5830 5830 5830 5829 5829 5829 5829 5828
5845 5844 5844 5845 5846 5846 5847 5848 5849 5850 5851 5850 5850 5849 5848 5847 5846 5845 5843 5842 5841 5839 5837 5835 5832 5830 5828 5827 5826 5824 5824 5823 5822 5823 5823 5822 5822 5822 5822 5822 5822 5822 5821
5834 5833 5833 5834 5836 5837 5838 5839 5839 5840 5841 5841 5841 5841 5840 5839 5837 5836 5834 5832 5830 5828 5826 5824 5822 5820 5818 5817 5816 5815 5814 5814 5813 5813 5814 5813 5813 5813 5814 5814 5814 5814 5814